Location: Easter Hill Village
(37.9235°N, 122.3444°W)
Time: 16:31:58
(UTC+00:00)

Cosmos 1340 - Pass Details

Date: 16 September 2019
Orbit: 502 x 506 km, 81.2° (Epoch: 14 October)

Event Time Altitude Azimuth Distance (km) Brightness Sun altitude
Rises 12:28:19 0° 0° (N) 2,616 6.5 -17.0°
Reaches altitude 10° 12:30:36 10° 10° (N) 1,726 5.7 -16.6°
Maximum altitude 12:34:05 34° 77° (ENE) 845 4.5 -15.9°
Drops below altitude 10° 12:37:32 10° 144° (SE) 1,711 5.6 -15.3°
Sets 12:39:46 0° 153° (SSE) 2,590 6.4 -14.8°
